GW3664 Weather Reports


time (UTC)temp
C
wind
direction
speed
KPH
gust
KPH
rain 1hr
cm
rain 24hr
cm
rain mn
cm
humidity
%
barometer
mb
20260504081552 11 13 3.2 6.4 0.00 0.00 0.00 46 1008.6
20260504081050 10 343 3.2 8.0 0.00 0.00 0.00 47 1008.6
20260504080551 10 5 3.2 8.0 0.00 0.00 0.00 50 1008.5
20260504050549 12 0 1.6 4.8 0.00 0.00 0.00 44 1007.2
20260504050105 12 319 0.0 4.8 0.00 0.00 0.00 44 1007.1
20260504045553 12 319 1.6 4.8 0.00 0.00 0.00 45 1007.0
20260504045051 12 319 3.2 6.4 0.00 0.00 0.00 44 1007.1
20260504044557 12 319 0.0 6.4 0.00 0.00 0.00 45 1007.1
20260504044050 12 0 3.2 6.4 0.00 0.00 0.00 44 1007.1
20260504043552 12 319 3.2 6.4 0.00 0.00 0.00 43 1007.1
20260504043054 12 311 1.6 6.4 0.00 0.00 0.00 43 1007.1
20260504042552 13 313 1.6 6.4 0.00 0.00 0.00 43 1007.0
20260504042051 13 313 0.0 6.4 0.00 0.00 0.00 42 1007.1
20260504041549 13 307 3.2 6.4 0.00 0.00 0.00 42 1007.1
20260504041049 13 304 1.6 6.4 0.00 0.00 0.00 41 1007.1
20260504040552 13 309 3.2 6.4 0.00 0.00 0.00 41 1007.2
20260504040053 13 309 1.6 6.4 0.00 0.00 0.00 41 1007.1
20260504035549 13 302 3.2 6.4 0.00 0.00 0.00 42 1007.0
20260504035051 14 301 3.2 6.4 0.00 0.00 0.00 42 1007.0
20260504034554 14 307 3.2 6.4 0.00 0.00 0.00 41 1006.9
20260504034052 15 307 1.6 4.8 0.00 0.00 0.00 40 1007.0
20260504033551 15 297 1.6 4.8 0.00 0.00 0.00 40 1006.9
20260504033054 15 309 3.2 4.8 0.00 0.00 0.00 39 1006.8
20260504032548 15 308 1.6 4.8 0.00 0.00 0.00 39 1006.8
20260504032052 15 0 0.0 6.4 0.00 0.00 0.00 40 1006.8
20260504031551 16 342 1.6 6.4 0.00 0.00 0.00 39 1006.9
20260504031052 16 349 0.0 6.4 0.00 0.00 0.00 38 1006.8
20260504030552 16 0 0.0 8.0 0.00 0.00 0.00 37 1006.9
20260504030054 17 346 1.6 8.0 0.00 0.00 0.00 37 1006.8
20260504025552 17 0 1.6 11.3 0.00 0.00 0.00 37 1006.8
20260504025049 17 347 3.2 11.3 0.00 0.00 0.00 37 1006.7
20260504024608 18 315 3.2 12.9 0.00 0.00 0.00 36 1006.6
20260504024050 18 348 4.8 12.9 0.00 0.00 0.00 35 1006.6
20260504023553 18 350 3.2 8.0 0.00 0.00 0.00 34 1006.4
20260504023057 19 320 3.2 9.7 0.00 0.00 0.00 34 1006.2
20260504022555 19 336 1.6 9.7 0.00 0.00 0.00 33 1006.2
20260504022052 20 321 4.8 9.7 0.00 0.00 0.00 32 1006.1
20260504021559 20 333 4.8 9.7 0.00 0.00 0.00 31 1006.0
20260504021052 20 306 3.2 6.4 0.00 0.00 0.00 30 1006.0
20260504020551 21 314 1.6 6.4 0.00 0.00 0.00 29 1006.0
20260504020054 21 313 1.6 8.0 0.00 0.00 0.00 29 1005.9
20260504015551 21 319 3.2 8.0 0.00 0.00 0.00 27 1006.0
20260504015052 22 313 3.2 8.0 0.00 0.00 0.00 26 1005.9
20260504014604 22 320 3.2 8.0 0.00 0.00 0.00 26 1005.9
20260504014051 22 304 3.2 8.0 0.00 0.00 0.00 24 1005.9
20260504013552 23 301 3.2 9.7 0.00 0.00 0.00 23 1006.0
20260504013058 23 0 3.2 14.5 0.00 0.00 0.00 22 1006.1
20260504012555 23 273 3.2 16.1 0.00 0.00 0.00 20 1006.0
20260504012052 23 274 6.4 17.7 0.00 0.00 0.00 19 1006.1
20260504011555 23 246 9.7 17.7 0.00 0.00 0.00 19 1006.1
20260504011051 23 265 6.4 17.7 0.00 0.00 0.00 20 1006.1
20260504010550 23 311 6.4 19.3 0.00 0.00 0.00 19 1006.2
20260504005551 24 306 8.0 17.7 0.00 0.00 0.00 20 1006.3
20260504005051 24 285 8.0 17.7 0.00 0.00 0.00 20 1006.3
20260504004558 24 280 9.7 17.7 0.00 0.00 0.00 20 1006.4
20260504004050 24 277 6.4 14.5 0.00 0.00 0.00 20 1006.4
20260504003553 24 263 8.0 19.3 0.00 0.00 0.00 20 1006.5
20260504003055 24 322 11.3 19.3 0.00 0.00 0.00 20 1006.5
20260504002550 25 259 9.7 17.7 0.00 0.00 0.00 19 1006.6
20260504002052 25 251 6.4 17.7 0.00 0.00 0.00 20 1006.6
20260504001552 24 257 8.0 17.7 0.00 0.00 0.00 20 1006.6
20260504001052 24 215 4.8 22.5 0.00 0.00 0.00 19 1006.6
20260504000552 25 246 8.0 22.5 0.00 0.00 0.00 20 1006.7
20260504000130 25 233 11.3 24.1 0.00 0.00 0.00 20 1006.8
20260503235550 25 267 11.3 24.1 0.00 0.00 0.00 20 1006.9
20260503235051 25 213 6.4 17.7 0.00 0.00 0.00 20 1007.0
20260503234559 25 313 6.4 17.7 0.00 0.00 0.00 20 1006.9
20260503234054 25 307 6.4 17.7 0.00 0.00 0.00 20 1006.9
20260503233551 24 270 6.4 20.9 0.00 0.00 0.00 20 1007.0
20260503233051 24 267 8.0 20.9 0.00 0.00 0.00 19 1007.1
20260503232551 24 245 4.8 16.1 0.00 0.00 0.00 22 1007.2
20260503232051 25 266 9.7 17.7 0.00 0.00 0.00 21 1007.2
20260503231555 25 327 8.0 24.1 0.00 0.00 0.00 20 1007.2
20260503231051 25 299 9.7 24.1 0.00 0.00 0.00 19 1007.3
20260503230551 25 263 11.3 24.1 0.00 0.00 0.00 19 1007.4
20260503230055 25 250 6.4 27.4 0.00 0.00 0.00 19 1007.5
20260503225550 24 236 14.5 27.4 0.00 0.00 0.00 21 1007.5
20260503225052 25 269 9.7 17.7 0.00 0.00 0.00 20 1007.5
20260503224552 25 252 9.7 17.7 0.00 0.00 0.00 18 1007.6
20260503224053 25 269 8.0 24.1 0.00 0.00 0.00 18 1007.6
20260503223551 24 321 11.3 24.1 0.00 0.00 0.00 19 1007.7
20260503223054 24 248 11.3 27.4 0.00 0.00 0.00 20 1007.7
20260503222551 24 273 11.3 27.4 0.00 0.00 0.00 19 1007.8
20260503222051 24 214 11.3 32.2 0.00 0.00 0.00 22 1007.9
20260503221558 25 241 17.7 32.2 0.00 0.00 0.00 21 1008.0
20260503221053 25 249 4.8 24.1 0.00 0.00 0.00 23 1008.0
20260503220551 24 254 12.9 24.1 0.00 0.00 0.00 23 1008.1
20260503220057 24 309 8.0 19.3 0.00 0.00 0.00 23 1008.1
20260503215551 24 249 6.4 19.3 0.00 0.00 0.00 24 1008.2
20260503215051 24 278 4.8 19.3 0.00 0.00 0.00 22 1008.4
20260503214552 24 277 8.0 25.7 0.00 0.00 0.00 23 1008.5
20260503214051 24 227 8.0 25.7 0.00 0.00 0.00 23 1008.6
20260503213550 24 227 8.0 19.3 0.00 0.00 0.00 22 1008.7
20260503213052 23 275 8.0 19.3 0.00 0.00 0.00 24 1008.8
20260503212550 23 279 11.3 22.5 0.00 0.00 0.00 24 1008.9
20260503212051 23 238 8.0 22.5 0.00 0.00 0.00 24 1009.1
20260503211602 23 226 16.1 22.5 0.00 0.00 0.00 25 1009.3
20260503211052 23 207 9.7 16.1 0.00 0.00 0.00 26 1009.1
20260503210551 23 269 8.0 17.7 0.00 0.00 0.00 25 1009.3
20260503210052 23 226 8.0 22.5 0.00 0.00 0.00 26 1009.3
20260503205551 23 334 8.0 22.5 0.00 0.00 0.00 25 1009.4
20260503205053 23 178 8.0 16.1 0.00 0.00 0.00 26 1009.6
20260503204554 23 284 3.2 19.3 0.00 0.00 0.00 26 1009.6
20260503204051 23 301 9.7 27.4 0.00 0.00 0.00 26 1009.8
20260503203609 23 331 11.3 27.4 0.00 0.00 0.00 25 1009.8
20260503203110 22 232 11.3 22.5 0.00 0.00 0.00 26 1009.9
20260503202553 22 266 6.4 24.1 0.00 0.00 0.00 27 1009.9
20260503202054 22 217 14.5 24.1 0.00 0.00 0.00 26 1010.1
20260503201557 23 280 8.0 22.5 0.00 0.00 0.00 26 1010.1
20260503201052 22 312 9.7 22.5 0.00 0.00 0.00 25 1010.2
20260503200554 22 248 11.3 22.5 0.00 0.00 0.00 26 1010.3
20260503200051 22 291 4.8 16.1 0.00 0.00 0.00 27 1010.3
20260503195551 22 294 3.2 22.5 0.00 0.00 0.00 27 1010.6
20260503195052 22 297 6.4 22.5 0.00 0.00 0.00 28 1010.8
20260503194559 22 233 12.9 19.3 0.00 0.00 0.00 26 1010.9
20260503194054 22 281 9.7 17.7 0.00 0.00 0.00 26 1011.0
20260503193551 22 285 6.4 19.3 0.00 0.00 0.00 28 1011.1
20260503193053 22 169 8.0 19.3 0.00 0.00 0.00 26 1011.2
20260503192551 22 0 3.2 20.9 0.00 0.00 0.00 29 1011.3
20260503192050 22 316 1.6 20.9 0.00 0.00 0.00 28 1011.4
20260503191554 22 315 4.8 16.1 0.00 0.00 0.00 29 1011.6
20260503191055 22 246 4.8 17.7 0.00 0.00 0.00 29 1011.7
20260503190552 21 285 8.0 22.5 0.00 0.00 0.00 28 1011.8
20260503190054 21 288 6.4 22.5 0.00 0.00 0.00 27 1011.7
20260503185551 21 274 8.0 22.5 0.00 0.00 0.00 30 1011.9
20260503185052 21 328 6.4 20.9 0.00 0.00 0.00 31 1011.9
20260503184553 21 215 8.0 24.1 0.00 0.00 0.00 31 1012.0
20260503184053 21 238 12.9 24.1 0.00 0.00 0.00 30 1012.0
20260503183551 21 246 14.5 24.1 0.00 0.00 0.00 28 1012.1
20260503183052 21 223 9.7 22.5 0.00 0.00 0.00 30 1012.2
20260503182551 21 253 9.7 25.7 0.00 0.00 0.00 29 1012.4
20260503182053 21 291 8.0 25.7 0.00 0.00 0.00 31 1012.4
20260503181603 21 262 3.2 16.1 0.00 0.00 0.00 32 1012.4
20260503181051 20 346 3.2 12.9 0.00 0.00 0.00 36 1012.3
20260503180551 20 244 3.2 11.3 0.00 0.00 0.00 36 1012.6
20260503180057 20 231 3.2 12.9 0.00 0.00 0.00 36 1012.6
20260503175551 20 0 1.6 12.9 0.00 0.00 0.00 37 1012.7
20260503175052 20 232 1.6 11.3 0.00 0.00 0.00 39 1012.8
20260503174554 20 82 3.2 14.5 0.00 0.00 0.00 38 1012.8
20260503174054 20 119 3.2 16.1 0.00 0.00 0.00 40 1012.9
20260503173551 19 106 4.8 16.1 0.00 0.00 0.00 44 1013.1
20260503173059 19 69 4.8 12.9 0.00 0.00 0.00 42 1013.2
20260503172551 18 78 1.6 12.9 0.00 0.00 0.00 41 1013.3
20260503172052 18 237 4.8 12.9 0.00 0.00 0.00 41 1013.3
20260503171552 18 173 1.6 8.0 0.00 0.00 0.00 42 1013.4
20260503171052 18 0 1.6 8.0 0.00 0.00 0.00 43 1013.4
20260503170548 18 243 3.2 8.0 0.00 0.00 0.00 44 1013.5
20260503150551 13 238 1.6 11.3 0.00 0.00 0.00 56 1014.4
20260503131056 7 0 0.0 0.0 0.00 0.00 0.00 77 1015.1
20260503130550 7 0 0.0 0.0 0.00 0.00 0.00 77 1015.0
20260503110552 7 304 6.4 12.9 0.00 0.00 0.00 70 1014.9